Starlink 6186

operational
NORAD ID: 56908 Int'l Des: 2023-083 Owner: SPXS Country: US Constellation: starlink
LEOCIRCULAR

About Starlink 6186

Description loading...

Live Position

Loading 3D Globe...

Upcoming Passes

Altitude History

Altitude vs Time

uPlot chart will show altitude changes over time

Two-Line Element Set

1 56908U 23083AJ 25260.15720985 .00000321 00000-0 38839-4 0 9997
2 56908 43.0033 291.9605 0001325 268.1635 91.9056 15.02539690125713
Epoch: Sep 17, 2025 • Age: 10 hours

Current Status

Altitude 563.1 km
Velocity 7.59 km/s
Sub-Earth Point 42.83°N, 168.56°E
Launch Date Jun 12, 2023
Age 2.2 years
Type internet

Technical Details

Classification Payload
Mass 305.00 kg
Dry Mass 290.00 kg
Total Mass 305.00 kg
Length 0.20 m
Diameter 2.80 m
Span 9.00 m
Shape Box + pan
Manufacturer SPXS
Bus Type Starlink
Phase Status In Orbit
Owner/State SPXS/US

Large Constellations

Loading constellations...